Hourly Weather Abay

Today, 24 October, Saturday

Time Temperature Precipitation Wind Pressure Humidity
00:00 -2°C° 0 mm 2 mps 668 mmHg 93%
01:00 -2°C° 0.5 mm 2 mps 669 mmHg 94%
02:00 -1°C° 0.5 mm 2 mps 669 mmHg 94%
03:00 -1°C° 0.5 mm 2 mps 669 mmHg 95%
04:00 -1°C° 0.8 mm 3 mps 669 mmHg 94%
05:00 -2°C° 0.8 mm 3 mps 669 mmHg 93%
06:00 -2°C° 0.8 mm 3 mps 669 mmHg 92%
07:00 -2°C° 0.1 mm 3 mps 670 mmHg 89%
08:00 -2°C° 0.1 mm 3 mps 670 mmHg 85%
09:00 -2°C° 0.1 mm 3 mps 671 mmHg 82%
10:00 -3°C° 0.3 mm 4 mps 671 mmHg 79%
11:00 -2°C° 0.3 mm 5 mps 671 mmHg 77%
12:00 -3°C° 0.3 mm 6 mps 671 mmHg 74%
13:00 -4°C° 0.1 mm 6 mps 672 mmHg 72%
14:00 -4°C° 0.1 mm 5 mps 672 mmHg 71%
15:00 -5°C° 0.1 mm 5 mps 672 mmHg 70%
16:00 -5°C° 0.1 mm 4 mps 673 mmHg 75%
17:00 -6°C° 0.1 mm 3 mps 673 mmHg 81%
18:00 -7°C° 0.1 mm 2 mps 674 mmHg 87%
19:00 -7°C° 0 mm 2 mps 674 mmHg 88%
20:00 -8°C° 0 mm 2 mps 675 mmHg 88%
21:00 -9°C° 0 mm 2 mps 675 mmHg 89%
22:00 -9°C° 0 mm 2 mps 676 mmHg 90%
23:00 -9°C° 0 mm 2 mps 676 mmHg 90%

Tomorrow, 25 October, Sunday

Time Temperature Precipitation Wind Pressure Humidity
00:00 -10°C° 0 mm 2 mps 676 mmHg 91%
01:00 -10°C° 0 mm 2 mps 677 mmHg 91%
02:00 -10°C° 0 mm 2 mps 677 mmHg 91%
03:00 -10°C° 0 mm 2 mps 677 mmHg 91%
04:00 -12°C° 0 mm 2 mps 678 mmHg 90%
05:00 -12°C° 0 mm 2 mps 678 mmHg 90%
06:00 -11°C° 0 mm 1 mps 678 mmHg 90%
07:00 -12°C° 0 mm 2 mps 678 mmHg 86%
08:00 -10°C° 0 mm 2 mps 678 mmHg 82%
09:00 -9°C° 0 mm 2 mps 678 mmHg 78%
10:00 -7°C° 0 mm 2 mps 678 mmHg 72%
11:00 -6°C° 0 mm 2 mps 678 mmHg 65%
12:00 -5°C° 0 mm 2 mps 678 mmHg 58%
13:00 -4°C° 0 mm 2 mps 677 mmHg 57%
14:00 -4°C° 0 mm 2 mps 677 mmHg 56%
15:00 -3°C° 0 mm 2 mps 676 mmHg 55%
16:00 -4°C° 0 mm 2 mps 676 mmHg 59%
17:00 -5°C° 0 mm 2 mps 676 mmHg 63%
18:00 -6°C° 0 mm 2 mps 676 mmHg 67%
19:00 -6°C° 0 mm 2 mps 676 mmHg 66%
20:00 -6°C° 0 mm 2 mps 676 mmHg 65%
21:00 -6°C° 0 mm 2 mps 676 mmHg 64%
22:00 -6°C° 0 mm 2 mps 675 mmHg 64%
23:00 -6°C° 0 mm 2 mps 675 mmHg 65%

Day after tomorrow, 26 October, Monday

Time Temperature Precipitation Wind Pressure Humidity
00:00 -7°C° 0 mm 2 mps 674 mmHg 66%
01:00 -7°C° 0 mm 2 mps 675 mmHg 66%
02:00 -7°C° 0 mm 2 mps 675 mmHg 66%
03:00 -8°C° 0 mm 3 mps 675 mmHg 66%
04:00 -6°C° 0 mm 2 mps 675 mmHg 66%
05:00 -6°C° 0 mm 2 mps 675 mmHg 66%
06:00 -6°C° 0 mm 2 mps 675 mmHg 67%
07:00 -5°C° 0 mm 2 mps 675 mmHg 65%
08:00 -4°C° 0 mm 2 mps 675 mmHg 64%
09:00 -4°C° 0 mm 3 mps 675 mmHg 62%
10:00 -2°C° 0 mm 3 mps 675 mmHg 60%
11:00 -1°C° 0 mm 3 mps 674 mmHg 57%
12:00 0°C° 0 mm 3 mps 674 mmHg 55%
13:00 +1°C° 0 mm 3 mps 674 mmHg 57%
14:00 +1°C° 0 mm 3 mps 673 mmHg 59%
15:00 +2°C° 0 mm 2 mps 673 mmHg 61%
16:00 +1°C° 0 mm 2 mps 673 mmHg 65%
17:00 -1°C° 0 mm 2 mps 672 mmHg 68%
18:00 -2°C° 0 mm 2 mps 672 mmHg 72%
19:00 -2°C° 0 mm 2 mps 672 mmHg 73%
20:00 -2°C° 0 mm 2 mps 671 mmHg 75%
21:00 -3°C° 0 mm 2 mps 671 mmHg 76%
22:00 -2°C° 0 mm 2 mps 671 mmHg 76%
23:00 -2°C° 0 mm 2 mps 670 mmHg 76%

, 27 October, Tuesday

Time Temperature Precipitation Wind Pressure Humidity
00:00 -1°C° 0 mm 2 mps 670 mmHg 76%
01:00 -1°C° 0 mm 2 mps 670 mmHg 77%
02:00 -1°C° 0 mm 2 mps 669 mmHg 78%
03:00 -1°C° 0 mm 2 mps 669 mmHg 79%
04:00 -1°C° 0 mm 2 mps 669 mmHg 79%
05:00 -1°C° 0 mm 3 mps 668 mmHg 79%
06:00 -2°C° 0 mm 3 mps 668 mmHg 79%
07:00 -1°C° 0 mm 3 mps 668 mmHg 79%
08:00 0°C° 0 mm 3 mps 668 mmHg 80%
09:00 +1°C° 0 mm 3 mps 668 mmHg 81%
10:00 +2°C° 0 mm 3 mps 668 mmHg 77%
11:00 +4°C° 0 mm 4 mps 667 mmHg 74%
12:00 +5°C° 0 mm 4 mps 667 mmHg 71%
13:00 +5°C° 0 mm 4 mps 667 mmHg 69%
14:00 +5°C° 0 mm 4 mps 666 mmHg 68%
15:00 +5°C° 0 mm 4 mps 666 mmHg 67%
16:00 +4°C° 0 mm 3 mps 666 mmHg 72%
17:00 +3°C° 0 mm 3 mps 665 mmHg 77%
18:00 +2°C° 0 mm 2 mps 665 mmHg 82%
19:00 +2°C° 0 mm 2 mps 664 mmHg 81%
20:00 +1°C° 0 mm 2 mps 664 mmHg 81%
21:00 +1°C° 0 mm 2 mps 663 mmHg 80%
22:00 0°C° 0 mm 3 mps 663 mmHg 78%
23:00 0°C° 0 mm 3 mps 662 mmHg 77%

27 October, Tuesday

Time Temperature Precipitation Wind Pressure Humidity
00:00 -1°C° 0 mm 2 mps 670 mmHg 76%
01:00 -1°C° 0 mm 2 mps 670 mmHg 77%
02:00 -1°C° 0 mm 2 mps 669 mmHg 78%
03:00 -1°C° 0 mm 2 mps 669 mmHg 79%
04:00 -1°C° 0 mm 2 mps 669 mmHg 79%
05:00 -1°C° 0 mm 3 mps 668 mmHg 79%
06:00 -2°C° 0 mm 3 mps 668 mmHg 79%
07:00 -1°C° 0 mm 3 mps 668 mmHg 79%
08:00 0°C° 0 mm 3 mps 668 mmHg 80%
09:00 +1°C° 0 mm 3 mps 668 mmHg 81%
10:00 +2°C° 0 mm 3 mps 668 mmHg 77%
11:00 +4°C° 0 mm 4 mps 667 mmHg 74%
12:00 +5°C° 0 mm 4 mps 667 mmHg 71%
13:00 +5°C° 0 mm 4 mps 667 mmHg 69%
14:00 +5°C° 0 mm 4 mps 666 mmHg 68%
15:00 +5°C° 0 mm 4 mps 666 mmHg 67%
16:00 +4°C° 0 mm 3 mps 666 mmHg 72%
17:00 +3°C° 0 mm 3 mps 665 mmHg 77%
18:00 +2°C° 0 mm 2 mps 665 mmHg 82%
19:00 +2°C° 0 mm 2 mps 664 mmHg 81%
20:00 +1°C° 0 mm 2 mps 664 mmHg 81%
21:00 +1°C° 0 mm 2 mps 663 mmHg 80%
22:00 0°C° 0 mm 3 mps 663 mmHg 78%
23:00 0°C° 0 mm 3 mps 662 mmHg 77%

28 October, Wednesday

Time Temperature Precipitation Wind Pressure Humidity
00:00 0°C° 0 mm 3 mps 662 mmHg 75%
01:00 0°C° 0.1 mm 3 mps 661 mmHg 76%
02:00 +2°C° 0.1 mm 2 mps 661 mmHg 77%
03:00 +2°C° 0.1 mm 2 mps 661 mmHg 78%
04:00 +1°C° 1.8 mm 3 mps 662 mmHg 84%
05:00 +1°C° 1.8 mm 3 mps 662 mmHg 91%
06:00 0°C° 1.8 mm 4 mps 663 mmHg 97%
07:00 0°C° 1 mm 4 mps 663 mmHg 96%
08:00 0°C° 1 mm 4 mps 664 mmHg 95%
09:00 +1°C° 1 mm 4 mps 664 mmHg 94%
10:00 +1°C° 0.5 mm 5 mps 664 mmHg 90%
11:00 +1°C° 0.5 mm 6 mps 665 mmHg 86%
12:00 0°C° 0.5 mm 8 mps 665 mmHg 82%
13:00 0°C° 0 mm 7 mps 665 mmHg 80%
14:00 -1°C° 0 mm 6 mps 665 mmHg 78%
15:00 0°C° 0 mm 5 mps 665 mmHg 76%
16:00 -2°C° 0 mm 4 mps 665 mmHg 80%
17:00 -3°C° 0 mm 4 mps 666 mmHg 85%
18:00 -4°C° 0 mm 3 mps 666 mmHg 89%
19:00 -5°C° 0 mm 3 mps 667 mmHg 90%
20:00 -4°C° 0 mm 2 mps 667 mmHg 90%
21:00 -5°C° 0 mm 2 mps 668 mmHg 91%
22:00 -5°C° 0.1 mm 2 mps 668 mmHg 91%
23:00 -5°C° 0.1 mm 2 mps 668 mmHg 91%

29 October, Thursday

Time Temperature Precipitation Wind Pressure Humidity
00:00 -5°C° 0.1 mm 2 mps 669 mmHg 91%
01:00 -5°C° 0.1 mm 2 mps 669 mmHg 91%
02:00 -5°C° 0.1 mm 2 mps 669 mmHg 90%
03:00 -5°C° 0.1 mm 2 mps 669 mmHg 90%
04:00 -5°C° 0.1 mm 2 mps 670 mmHg 90%
05:00 -5°C° 0.1 mm 2 mps 670 mmHg 90%
06:00 -4°C° 0.1 mm 2 mps 670 mmHg 90%
07:00 -4°C° 0.1 mm 2 mps 670 mmHg 89%
08:00 -4°C° 0.1 mm 3 mps 671 mmHg 88%
09:00 -4°C° 0.1 mm 3 mps 671 mmHg 88%
10:00 -2°C° 0.1 mm 3 mps 671 mmHg 84%
11:00 -3°C° 0.1 mm 4 mps 671 mmHg 80%
12:00 -2°C° 0.1 mm 4 mps 671 mmHg 77%
13:00 -2°C° 0.1 mm 4 mps 671 mmHg 77%
14:00 -2°C° 0.1 mm 4 mps 671 mmHg 77%
15:00 -1°C° 0.1 mm 3 mps 671 mmHg 78%
16:00 -2°C° 0.1 mm 3 mps 671 mmHg 83%
17:00 -3°C° 0.1 mm 2 mps 671 mmHg 88%
18:00 -5°C° 0.1 mm 2 mps 671 mmHg 92%
19:00 -5°C° 0.2 mm 2 mps 672 mmHg 93%
20:00 -5°C° 0.2 mm 2 mps 672 mmHg 94%
21:00 -5°C° 0.2 mm 2 mps 672 mmHg 95%
22:00 -5°C° 0.2 mm 2 mps 673 mmHg 95%
23:00 -5°C° 0.2 mm 2 mps 673 mmHg 95%
Show more